Location: Iteuil
(46.4881°N, 0.3121°E)
Time: 19:54:35
(UTC+00:00)

Daily predictions for brighter satellites

Satellite Brightness Start Highest point End
(mag) Time Altitude Azimuth Time Altitude Azimuth Time Altitude Azimuth
CZ-4B R/B 4.4 18:22:27 10° ESE 18:25:26 20° ENE 18:28:30 10° NNE
Cosmos 1400 Rocket 3.8 18:22:45 10° NNW 18:26:24 48° W 18:30:01 10° S
Landsat 7 3.8 18:24:34 10° SSE 18:29:15 84° ENE 18:33:59 10° NNW
USA 234 4.1 18:23:56 10° SSE 18:30:16 52° SW 18:36:40 10° WNW
NOSS 0 Rocket 4.3 18:25:12 10° SW 18:31:26 75° WNW 18:37:42 10° NNE
Radarsat Rocket 4.3 18:27:24 10° SSE 18:33:58 78° WSW 18:39:58 10° NNW
Resurs 01 Rocket 3.0 18:31:35 10° ESE 18:34:48 20° ENE 18:38:03 10° NNE
Cosmos 1707 2.5 18:36:02 10° N 18:39:36 89° W 18:43:08 10° S
Cosmos 2034 Rocket 4.4 18:38:55 10° SSE 18:44:35 40° E 18:50:16 10° NNE
USA 306 4.1 18:42:57 10° NW 18:45:30 22° N 18:48:22 10° ENE
ISS -2.5 18:42:35 10° WNW 18:45:43 35° N 18:48:51 10° ENE
Meteor PRIRODA 3.9 18:43:38 10° SE 18:46:40 36° ENE 18:49:42 10° N
Cosmos 2208 Rocket 4.0 18:44:49 10° S 18:50:03 70° ESE 18:55:24 10° NNE
Cosmos 1733 2.8 18:49:58 10° S 18:53:23 82° E 18:56:49 10° N
SL-16 R/B 2.6 18:48:48 10° S 18:54:00 39° ESE 18:59:15 10° NE
ACS3 Solar Sail 2.8 18:48:48 10° ESE 18:54:08 29° ENE 18:59:28 10° N
SAR-Lupe-2 3.5 18:50:39 10° SSE 18:54:12 67° ENE 18:57:46 10° N
Cosmos 1805 3.6 18:53:46 10° SSE 18:57:07 36° E 19:00:30 10° NNE
Cosmos 1315 Rocket 2.7 18:53:37 10° N 18:57:34 64° ENE 19:01:30 10° SSE
Cosmos 1536 3.0 18:56:53 10° SSW 19:00:41 73° W 19:04:32 10° N
Resurs 1-3 3.5 18:58:05 10° SSE 19:02:25 84° ENE 19:06:47 10° NNW
SPOT 1/Viking Rocket 3.5 19:00:51 10° SSE 19:06:00 81° ENE 19:11:10 10° NNW
ATLAS CENTAUR R/B 3.3 19:03:52 10° W 19:06:58 26° NW 19:10:13 10° NNE
Cosmos 2278 Rocket 3.9 19:02:16 10° NW 19:07:19 34° WSW 19:12:20 10° SSW
Meteor 1-11 Rocket 3.6 19:01:48 10° S 19:07:21 81° E 19:12:53 10° NNE
Cosmos 1428 Rocket 4.5 19:02:39 10° N 19:08:42 59° ENE 19:14:44 10° SSE
Cosmos 1515 Rocket 4.0 19:04:38 10° NNW 19:08:58 65° W 19:13:18 10° S
SL-14 R/B 3.6 19:06:15 10° N 19:09:54 42° ENE 19:12:47 15° SE
Meteor 2-9 Rocket 4.1 19:05:26 10° S 19:10:48 75° E 19:16:20 10° NNE
ADEOS 3.6 19:08:03 10° SSE 19:13:16 87° WSW 19:18:32 10° NNW
CSL-04 Rocket 4.0 19:11:58 14° SE 19:16:12 44° ENE 19:21:11 10° N
USA 59 Rocket 3.3 19:14:29 10° W 19:16:34 13° WSW 19:18:57 10° SW
CZ-4B DEB 4.2 19:12:18 10° SSE 19:17:48 84° ENE 19:23:18 10° NNW
CZ-4B R/B 3.4 19:13:15 12° SE 19:18:02 50° ENE 19:23:09 10° N
Cosmos 1500 Rocket 3.4 19:18:11 10° S 19:22:32 83° E 19:26:53 10° N
USA 186 1.8 19:24:41 29° SE 19:26:04 57° ENE 19:29:14 10° N
CZ-4B R/B 3.8 19:23:47 10° S 19:28:31 63° WSW 19:33:24 10° NNW
SJ-6B 3.2 19:25:31 10° S 19:29:02 55° W 19:32:35 10° NNW
ARGOS Delta rocket 3.9 19:24:19 10° S 19:29:11 77° W 19:33:49 10° NNW
Cosmos 773 Rocket 4.0 19:25:24 10° SSW 19:30:41 87° ESE 19:36:01 10° NNE
Nadezhda 4 Rocket 4.3 19:26:01 10° NNW 19:32:17 70° W 19:38:33 10° S
Cosmos 1743 Rocket 3.4 19:28:12 10° S 19:32:30 78° E 19:36:53 10° NNE
Cosmos 2237 Rocket 3.7 19:27:22 10° WSW 19:32:33 37° NW 19:37:47 10° NNE
Cosmos 2195 Rocket 4.4 19:26:30 10° N 19:32:39 79° E 19:38:49 10° SSE
Cosmos 1408 Rocket 4.2 19:30:15 10° SSW 19:34:34 57° WNW 19:38:58 10° N
NOSS 3-3 (C) 4.5 19:30:40 10° WSW 19:36:01 56° NW 19:42:24 10° NE
SL-08 R/B 3.9 19:32:31 10° N 19:37:24 61° WNW 19:42:12 10° SSW
Cosmos 2026 Rocket 3.9 19:31:33 10° N 19:37:44 73° E 19:43:31 11° SSE
Cosmos 1943 Rocket 4.1 19:33:32 10° NW 19:38:08 28° WSW 19:42:45 10° SSW
USA 267 4.4 19:32:17 10° NE 19:38:14 38° N 19:44:10 10° WNW
Helios 1A 3.2 19:34:27 10° N 19:38:30 70° WNW 19:42:32 10° SSW
Cosmos 724 4.2 19:32:48 10° SW 19:38:36 86° NW 19:44:26 10° NE
Cosmos 1766 4.5 19:41:43 24° NE 19:41:43 24° NE 19:43:38 10° NNE
SeaSat 1 3.9 19:35:56 10° NNE 19:40:29 39° NW 19:45:02 10° WSW
Sich 1 3.3 19:37:08 10° SSW 19:41:24 68° W 19:45:44 10° N
Tiangong -0.7 19:38:55 10° SW 19:41:06 26° S 19:41:06 26° S
Okean O Rocket 1.9 19:41:03 36° ESE 19:42:19 48° ENE 19:46:34 10° N
CARTOSAT-1 3.4 19:40:01 19° SSE 19:43:00 90° SE 19:47:17 10° NNW
GEOS 3 Rocket 3.9 19:41:58 32° ESE 19:44:09 53° NE 19:49:10 10° NNW
USA 32 4.0 19:39:58 10° N 19:45:15 89° W 19:50:29 10° S
Cosmos 1092 Rocket 4.0 19:41:59 10° N 19:48:23 84° E 19:54:22 12° S
CZ-4 R/B 2.2 19:46:04 10° S 19:49:49 49° W 19:53:40 10° NNW
BREEZE-M R/B 4.3 19:46:18 10° WNW 19:51:06 90° NE 20:00:20 26° ESE
Cosmos 1656 Rocket 3.7 19:46:34 10° NNW 19:52:13 79° WSW 19:55:32 25° SSE
CSL-04 Debris 4.1 19:48:56 18° SSE 19:53:08 89° WSW 19:58:39 10° NNW
SPOT 5 3.3 19:54:01 35° ENE 19:54:01 35° ENE 19:57:53 10° N
Cosmos 2297 3.7 19:48:36 10° NNW 19:54:16 86° WSW 19:57:17 29° SSE
Cosmos 1607 4.4 19:49:05 10° SW 19:55:30 66° NW 20:01:56 10° NNE
ARIANE 6 FM1 Upper Stage 2.6 19:53:02 10° SSW 19:57:16 66° SE 19:58:11 50° ENE
Aureole 3 Rocket 3.8 19:51:55 10° SSW 19:57:31 60° W 20:01:36 10° N
MOS 1-B 4.2 19:54:21 25° SSE 19:57:55 82° ENE 20:03:44 10° NNW
Cosmos 2369 Rocket 2.1 19:53:16 10° NNW 19:59:02 85° ENE 20:01:29 36° SSE
CZ-4B R/B 4.1 19:55:46 10° S 19:59:29 42° W 20:03:29 10° NNW
Okean 2 4.4 19:56:24 10° N 19:59:09 31° NE 19:59:09 31° NE
Terra 3.2 20:00:58 23° NE 20:00:58 23° NE 20:04:00 10° NNE
BREEZE-M DEB (TANK) 4.3 19:38:12 10° W 20:00:34 75° N 20:03:29 32° E
CRYOSAT 2 4.3 19:59:37 10° NNE 20:04:29 61° E 20:05:19 52° SE
Cosmos 1634 Rocket 3.9 19:59:05 10° S 20:05:24 86° E 20:11:46 10° N
Cosmos 1441 Rocket 3.3 20:03:44 26° SSW 20:05:34 65° WNW 20:09:05 10° N
Okean 1-7 4.0 20:04:29 10° N 20:07:26 32° NE 20:07:26 32° NE
Cosmos 1633 Rocket 3.3 20:09:44 51° NE 20:09:44 51° NE 20:13:19 10° NNE
Cosmos 2228 Rocket 3.0 20:04:27 10° N 20:09:02 89° ENE 20:10:05 54° S
Cosmos 1975 3.5 20:05:41 10° SSW 20:09:28 52° WNW 20:13:18 10° N
Resurs 01 Rocket 2.5 20:07:53 18° SSW 20:10:54 47° W 20:15:12 10° NNW
Cosmos 2084 Rocket 3.6 20:06:46 10° SW 20:11:05 72° NW 20:13:11 29° NNE
NOSS 3-4 (A) 4.0 20:05:01 10° NW 20:11:55 73° SW 20:15:59 31° SSE
NOSS 3-4 (C) 4.0 20:05:07 10° NW 20:12:00 73° SW 20:16:03 31° SSE
MetOp-B 4.2 20:11:41 51° E 20:12:16 53° ENE 20:17:29 10° N
Okean-O 2.7 20:17:08 61° NE 20:17:08 61° NE 20:21:09 10° N
Cosmos 192 4.2 20:12:35 10° NNW 20:17:31 89° ENE 20:18:09 68° SSE
USA 306 3.6 20:15:12 10° NW 20:17:50 38° N 20:17:50 38° N
MOS 1 Rocket 3.6 20:20:11 56° ENE 20:20:19 56° ENE 20:25:35 10° N
Cosmos 1862 Rocket 3.5 20:16:56 10° N 20:21:24 83° W 20:21:39 78° SSW
ISS -2.1 20:19:48 10° WNW 20:22:09 32° NNW 20:22:09 32° NNW
Cosmos 1707 Rocket 3.8 20:20:06 10° NNW 20:24:30 67° W 20:25:01 60° SW
ERS-1 Rocket 3.5 20:26:14 44° NE 20:26:14 44° NE 20:30:24 10° N
IRS-1A Rocket 4.3 20:27:25 56° ENE 20:27:37 57° ENE 20:33:07 10° N
Cosmos 1666 Rocket 3.7 20:28:15 67° WSW 20:28:33 70° W 20:32:52 10° N
Cosmos 2142 Rocket 4.3 20:32:14 50° S 20:33:56 80° E 20:40:09 10° N
Cosmos 2279 Rocket 3.9 20:33:08 26° SSW 20:36:53 83° W 20:43:09 10° N
ACS3 Solar Sail 2.4 20:33:51 24° S 20:37:46 59° W 20:44:06 10° NNW
SL-16 R/B 3.6 20:32:55 10° WSW 20:38:08 37° NW 20:43:23 10° NNE
Okean 3 4.4 20:40:57 10° NNW 20:44:39 45° WNW 20:44:39 45° WNW
Cosmos 2180 Rocket 4.4 20:48:16 61° S 20:49:29 90° E 20:55:53 10° N
Cosmos 1943 3.2 20:44:58 10° SSW 20:50:35 80° WNW 20:56:17 10° NNE
Ariane Rocket 4.0 20:57:45 36° NNE 20:57:45 36° NNE 21:01:01 10° N
ATLAS 2AS CENTAUR R/B 3.9 20:56:46 10° NNW 21:02:40 29° NNE 21:03:49 27° NE
IRS-1C Rocket 4.4 21:04:12 62° NNW 21:04:12 62° NNW 21:08:34 10° NNW
Cosmos 1655 Rocket 4.3 20:58:02 10° N 21:03:30 58° NE 21:03:30 58° NE
Okean O Rocket 3.9 21:18:23 19° W 21:18:48 19° W 21:21:58 10° NW
USA 267 4.3 21:18:34 33° NE 21:20:19 38° N 21:26:17 10° NW
Cosmos 2266 Rocket 4.3 21:21:18 10° NNW 21:27:22 61° W 21:27:22 61° W
Terra 3.7 21:39:41 28° NW 21:39:41 28° NW 21:42:07 10° NNW
Cosmos 1980 Rocket 4.3 21:58:27 10° N 22:00:49 18° NNE 22:00:49 18° NNE
Cosmos 2344 4.0 22:07:12 10° NW 22:15:07 80° NNE 22:15:07 80° NNE
ATLAS 2AS CENTAUR R/B 4.0 22:47:38 10° NW 22:51:13 34° NW 22:51:13 34° NW
CZ-3B R/B 4.4 23:21:48 10° WNW 23:36:26 54° NW 23:36:26 54° NW
